Location: Cazarilh
(42.9578°N, 0.5819°E)
Time: 06:59:37
(UTC+00:00)

FENGYUN 3A - Pass Details

Date: 11 December 2019
Orbit: 823 x 837 km, 98.4° (Epoch: 20 January)

Event Time Altitude Azimuth Distance (km) Brightness Sun altitude
Rises 05:02:04 0° 17° (NNE) 3,375 6.9 -24.1°
Reaches altitude 10° 05:04:29 10° 22° (NNE) 2,436 6.2 -23.6°
Maximum altitude 05:09:47 55° 100° (E) 982 4.3 -22.7°
Drops below altitude 10° 05:15:02 10° 178° (S) 2,414 6.2 -21.7°
Sets 05:17:25 0° 183° (S) 3,342 6.9 -21.3°
